Location: Pinhead Observatory
(34.4473°N, 118.1985°W)
Time: 13:36:29
(UTC-07:00)

Daily predictions for brighter satellites

Satellite Brightness Start Highest point End
(mag) Time Altitude Azimuth Time Altitude Azimuth Time Altitude Azimuth
Cosmos 44 Rocket 3.8 20:14:07 10° NW 20:19:17 67° WSW 20:24:26 10° SSE
Cosmos 1459 Rocket 4.5 20:17:13 10° SSW 20:23:12 66° W 20:29:14 10° N
GPS 2-04 Rocket1 3.1 20:21:40 10° W 20:25:46 58° SSW 20:29:56 10° ESE
BREEZE-M R/B 4.5 20:20:41 10° WSW 20:26:43 44° NW 20:29:57 10° NE
Cosmos 1184 Rocket 4.1 20:24:36 10° SSW 20:27:50 46° W 20:31:05 10° N
ATLAS CENTAUR R/B 3.5 20:23:30 10° SSW 20:28:22 66° ESE 20:42:36 10° NE
Okean 1 3.6 20:24:54 10° SSE 20:28:48 49° E 20:32:44 10° NNE
Delta 7925 Rocket 4.2 20:29:09 10° WSW 20:33:25 31° S 20:37:25 10° ESE
BREEZE-M DEB (TANK) 3.9 20:32:45 10° NNW 20:34:38 22° NE 20:37:29 10° E
Cosmos 1570 Rocket 4.0 20:29:39 10° SSW 20:34:58 81° ESE 20:40:21 10° NNE
Cosmos 304 Rocket 3.9 20:31:25 10° SSW 20:36:14 82° WNW 20:41:04 10° NNE
Cosmos 1939 Rocket 2.9 20:35:43 10° SSE 20:39:48 74° ENE 20:43:56 10° N
Abrixas rocket 4.3 20:38:46 10° W 20:41:38 29° NNW 20:44:32 10° NNE
ISS -0.7 20:41:15 10° WNW 20:43:19 16° NNW 20:45:24 10° N
NOSS 3-2 (A) 3.9 20:38:26 10° SW 20:44:09 64° WNW 20:50:29 10° NNE
Timation 2 Rocket 3.8 20:39:45 10° SSW 20:45:40 72° ESE 20:51:41 10° NNE
Meteor 1-18 Rocket 4.4 20:40:10 10° S 20:45:59 89° W 20:51:56 10° N
USA 234 3.2 20:41:18 10° NE 20:47:52 76° SE 20:54:26 10° SW
Resurs 1-3 3.6 20:44:31 10° SSE 20:48:53 73° ENE 20:53:15 10° N
USA 186 2.3 20:46:41 10° S 20:49:48 60° W 20:53:06 10° NNW
NOSS 3-2 (C) 3.5 20:44:25 10° SSW 20:50:13 82° WNW 20:56:37 10° NNE
Tiangong 2 3.4 20:49:18 10° WNW 20:51:58 25° NNW 20:54:38 10° NE
Cosmos 1898 Rocket 3.9 20:54:09 10° N 20:59:16 48° ENE 21:03:08 17° SE
Cosmos 1814 Rocket 4.2 20:54:44 10° S 20:59:46 52° ESE 21:04:54 10° NNE
ARGOS 4.1 20:56:49 15° ESE 21:00:20 30° ENE 21:05:00 10° N
NOAA 11 4.2 20:54:57 10° SSE 21:00:22 69° ENE 21:05:48 10° N
Cosmos 1340 Rocket 4.0 21:00:47 19° SE 21:02:23 24° E 21:05:40 10° NE
H-2A R/B 3.3 21:00:19 15° ESE 21:02:56 23° ENE 21:06:50 10° NNE
Cosmos 2322 Rocket 2.7 20:59:13 10° N 21:04:32 42° ENE 21:08:09 19° SE
Shenzhou-11 Module 4.4 21:02:41 10° NW 21:04:49 18° N 21:06:57 10° NE
Cosmos 1378 Rocket 4.4 21:01:47 10° SSW 21:05:59 50° W 21:10:12 10° N
Cosmos 292 Rocket 4.2 21:02:34 10° S 21:06:58 38° ESE 21:11:22 10° NE
YAOGAN 6 4.1 21:04:20 10° SSW 21:07:45 36° W 21:11:10 10° NNW
CENTAUR R/B 2.4 21:04:04 10° SSW 21:09:40 59° ESE 21:16:04 10° NE
Cosmos 1975 Rocket 2.9 21:05:38 10° S 21:09:57 76° E 21:14:16 10° N
Cosmos 2346 Rocket 4.4 21:04:35 10° N 21:10:49 84° E 21:16:58 10° S
SL-16 R/B 2.4 21:08:30 10° NNW 21:14:05 55° ENE 21:17:36 22° SE
Tsikada Rocket 4.3 21:08:09 10° N 21:14:33 74° W 21:20:55 10° S
Cosmos 990 Rocket 4.4 21:09:52 10° N 21:14:54 47° ENE 21:17:49 23° SE
Okean 1 Rocket 3.7 21:11:04 10° NNW 21:15:18 55° W 21:19:31 10° S
Cosmos 1242 Rocket 2.5 21:12:01 10° N 21:15:39 64° E 21:17:26 27° SSE
Aureole 2 Rocket 4.2 21:14:55 10° NNE 21:16:17 13° ENE 21:16:17 13° ENE
Meteor 1-13 Rocket 4.3 21:15:19 10° S 21:21:09 70° E 21:27:05 10° NNE
Cosmos 1544 Rocket 4.1 21:26:06 10° N 21:30:19 42° E 21:31:37 33° ESE
Cosmos 1975 3.9 21:31:30 10° NNW 21:35:19 42° W 21:38:27 14° SSW
Cosmos 2150 Rocket 4.3 21:32:04 10° N 21:37:18 52° ENE 21:39:21 34° SE
SL-08 RB Rocket 3.9 21:37:03 36° SE 21:38:30 51° ENE 21:42:56 10° N
Resurs 01 Rocket 3.4 21:37:14 10° SSW 21:41:00 28° W 21:44:48 10° NW
SJ 16-02 2.9 21:38:31 10° NNE 21:41:52 21° ENE 21:42:18 20° ENE
Cosmos 1536 Rocket 3.8 21:42:24 42° SE 21:43:20 50° E 21:47:38 10° NNE
Atlas Centaur 2 2.3 21:41:45 10° WSW 21:44:39 26° SSW 21:44:39 26° SSW
Cosmos 1666 4.2 21:43:19 10° NNW 21:46:51 34° W 21:49:22 16° SSW
ATLAS CENTAUR R/B 4.2 21:45:26 10° WNW 21:47:57 14° WSW 21:50:29 10° SW
Cosmos 540 Rocket 3.4 21:46:37 29° S 21:49:11 64° ESE 21:54:19 10° NNE
OAO 1 Rocket 4.4 21:45:24 10° W 21:50:44 85° N 21:53:17 32° E
Helios 1B rocket 3.8 21:47:52 10° NE 21:50:19 24° ENE 21:50:19 24° ENE
Cosmos 1072 Rocket 4.5 21:48:10 17° S 21:53:12 90° NNW 21:59:31 10° N
Cosmos 2360 Rocket 2.6 21:48:49 10° N 21:54:16 47° ENE 21:55:51 37° ESE
Cosmos 1937 Rocket 3.6 21:51:49 10° NNW 21:56:55 67° WSW 21:59:01 35° S
GPS 2-05 Rocket1 4.4 21:54:13 10° WSW 21:55:43 24° SW 21:55:43 24° SW
Cosmos 2219 Rocket 4.2 21:54:53 10° NNE 21:57:48 14° NE 21:59:19 13° ENE
Cosmos 2298 Rocket 4.0 21:52:53 10° NNW 21:58:12 86° WSW 22:00:01 43° SSE
DELTA 2 R/B (1) 4.2 21:56:36 10° SW 22:00:30 36° S 22:00:30 36° S
Cosmos 841 Rocket 4.3 21:58:10 10° SW 22:03:14 51° WNW 22:08:22 10° N
Nadezhda 4 Rocket 4.4 22:01:04 10° N 22:07:08 46° E 22:08:28 41° ESE
Meteor 2-9 Rocket 4.4 22:02:12 10° NNW 22:07:30 62° W 22:09:55 32° SSW
SPOT 5 3.0 22:07:55 48° ENE 22:08:00 48° ENE 22:12:20 10° N
USA 32 4.3 22:04:56 10° N 22:10:07 64° W 22:12:16 35° SSW
Terra 3.1 22:12:52 27° ENE 22:12:52 27° ENE 22:16:43 10° NNE
Meteor 1-23 Rocket 4.3 22:13:10 31° SSW 22:15:54 74° W 22:21:28 10° N
Cosmos 372 Rocket 4.3 22:13:48 10° N 22:18:44 47° ENE 22:18:58 46° ENE
Lacrosse 5 rocket 2.4 22:14:52 10° NNW 22:18:45 34° NE 22:18:45 34° NE
Cosmos 2333 Rocket 3.9 22:16:35 10° N 22:20:42 20° ENE 22:21:38 19° ENE
CZ-2C R/B 4.3 22:22:23 28° ENE 22:22:37 28° ENE 22:27:16 10° N
COSMOS 2428 3.6 22:18:54 10° N 22:24:01 34° ENE 22:24:36 33° ENE
Cosmos 1025 Rocket 3.4 22:28:21 56° NE 22:28:21 56° NE 22:31:56 10° N
ERS-1 Rocket 3.3 22:27:45 49° SW 22:28:43 58° W 22:33:41 10° NNW
Tiangong 2 3.7 22:27:07 10° NW 22:29:21 18° N 22:29:34 17° N
USA 245 4.2 22:31:21 43° WNW 22:31:21 43° WNW 22:34:41 10° NNW
Cosmos 2034 Rocket 4.3 22:32:58 32° SSW 22:35:48 61° W 22:41:54 10° N
SPOT 1/Viking Rocket 3.4 22:38:06 77° SSW 22:38:24 82° WSW 22:43:35 10° NNW
Cosmos 2297 Rocket 4.2 22:41:29 14° ENE 22:41:29 14° ENE 22:42:44 10° NE
Cosmos 2227 Rocket 4.0 22:44:40 18° ENE 22:44:40 18° ENE 22:46:35 10° NE
H-2A R/B 3.2 22:40:56 28° SW 22:42:08 32° W 22:46:36 10° NW
Cosmos 2322 3.6 22:41:37 10° NNW 22:47:22 82° WSW 22:47:37 79° SSW
Cosmos 2322 Rocket 4.0 22:44:04 10° NW 22:48:11 21° W 22:49:58 18° SW
Cosmos 2237 Rocket 3.9 22:48:22 10° N 22:52:29 20° ENE 22:52:51 20° ENE
Cosmos 1066 Rocket 4.1 22:54:05 77° W 22:54:08 77° W 22:59:34 10° N
Helios 1A 4.2 22:55:13 36° WNW 22:55:13 36° WNW 22:58:26 10° NNW
Cosmos 1125 Rocket 3.5 22:49:24 10° NNW 22:54:16 77° NW 22:54:16 77° NW
SL-16 R/B 4.3 22:54:13 10° WNW 22:57:37 16° W 22:59:30 14° WSW
Cosmos 1634 Rocket 3.8 23:02:32 82° SSE 23:02:48 86° E 23:09:10 10° N
Cosmos 2219 3.4 23:12:36 64° W 23:12:52 65° WNW 23:18:36 10° NNE
CZ-3 Stage 3 4.2 23:18:32 64° SSE 23:18:35 64° SSE 23:47:45 10° E
SJ 16-02 3.2 23:16:37 10° NW 23:19:19 25° WNW 23:19:19 25° WNW
Centaur D-1AR AC-36 4.5 23:13:59 10° WSW 23:20:54 22° SW 23:20:54 22° SW
COSMOS 2455 3.5 23:33:57 47° NE 23:33:57 47° NE 23:38:14 10° NNE
CZ-4C R/B 2.8 23:25:37 10° NNW 23:33:08 90° SW 23:33:40 80° SSE
Cosmos 2360 Rocket 4.1 23:33:55 10° NW 23:37:37 19° W 23:37:37 19° W
CZ-2C R/B 3.1 23:32:52 10° N 23:37:50 60° NW 23:37:50 60° NW
Cosmos 2219 Rocket 2.8 23:36:44 10° NNW 23:41:02 53° NW 23:41:02 53° NW
Terra 3.8 23:51:45 22° WNW 23:51:45 22° WNW 23:54:19 10° NW
Iridium 4 Rocket 4.4 23:52:46 53° NNE 23:52:46 53° NNE 23:57:12 10° N
